Wind_Speed
6 6 3 3 4 4 3 3 7 3 5 5 7 7 6 8 17 15 16 17 16 15 20 30 33 29 28 22 20 16 18 14 14 18 17 13 11 7 8 9 6 6 10 15
6 2 3 4 5 5 4 7 5 5 7 5 9 10 7 9 9 16 17 15 14 14 17 24 32 34 31 29 26 20 17 16 15 15 10 5 3 6 5 5 5 10 12 10
6 4 2 5 7 7 5 7 3 2 2 8 15 7 9 7 10 11 10 10 11 14 15 15 22 28 26 23 19 19 17 14 12 10 5 4 2 1 5 10 11 9 5 6
5 6 5 5 4 1 2 2 4 3 3 6 1 4 3 6 12 13 12 11 12 13 12 15 19 21 20 17 16 15 12 8 5 4 5 5 3 4 6 4 4 1 7 12
4 4 6 5 0 2 3 1 2 1 3 3 2 7 5 5 8 9 7 9 8 9 12 9 17 18 14 12 10 6 4 4 4 4 5 4 3 5 2 2 1 7 11 14
4 2 3 1 3 1 1 1 6 4 3 3 4 5 6 4 6 5 5 7 7 8 8 12 13 12 11 7 5 3 0 3 5 6 7 7 5 4 5 5 8 14 15 14
5 4 5 4 4 5 8 5 4 4 4 4 4 7 1 1 5 11 9 8 8 8 8 7 8 7 5 2 1 3 4 7 8 8 7 5 3 10 9 12 19 18 16 9
4 4 4 6 2 1 3 5 5 4 2 3 5 3 2 6 12 10 8 8 7 8 7 6 6 3 11 18 21 14 12 14 11 12 16 14 9 7 11 16 16 16 7 4
4 0 2 1 2 1 3 4 4 6 3 3 1 4 3 5 6 10 7 9 6 8 7 8 10 25 26 27 24 19 15 13 10 8 9 12 17 17 18 21 14 9 8 2
2 4 2 3 5 5 5 2 4 4 2 1 3 3 4 5 5 7 6 8 9 9 8 9 17 21 21 17 15 13 11 11 10 13 16 17 12 14 12 17 11 11 7 3
2 4 4 4 3 1 5 3 5 4 3 4 2 5 5 6 8 10 7 8 9 8 7 7 14 15 14 14 13 13 14 11 14 19 20 20 19 18 14 7 6 5 4 8
2 5 3 1 3 1 1 3 4 4 2 2 4 4 3 6 10 13 10 9 9 9 7 9 12 10 10 13 16 19 19 21 24 23 22 22 22 18 16 11 8 12 13 5
2 2 3 6 6 6 4 2 5 6 3 3 5 5 3 3 8 7 10 9 7 6 6 6 8 10 13 15 16 17 21 22 24 27 27 26 26 28 24 16 13 5 2 10
2 3 4 6 4 3 0 2 3 5 3 4 6 6 5 6 10 7 9 8 7 6 5 5 8 9 9 11 14 15 17 20 23 25 27 28 27 25 17 5 3 8 12 14
3 4 2 2 3 1 1 2 1 4 4 5 7 7 6 6 7 6 8 7 7 6 5 5 3 2 5 10 11 13 15 18 19 19 22 20 22 18 13 16 19 15 16 13
4 2 1 0 5 6 3 5 5 4 4 4 9 5 5 5 8 6 6 6 5 3 2 3 4 3 6 8 8 10 13 13 14 17 15 20 19 17 15 15 15 17 18 7
4 4 3 3 5 6 5 4 3 1 4 3 6 6 6 5 6 6 5 6 5 3 4 5 0 2 7 5 6 8 9 10 11 10 12 18 18 17 18 17 14 18 12 15
5 4 3 2 4 1 5 5 4 9 3 10 11 7 6 7 5 6 5 5 6 6 5 2 1 2 4 1 5 7 6 8 11 10 15 17 16 19 18 10 12 13 13 18
4 4 3 3 3 5 6 4 6 5 3 4 9 7 5 7 5 3 5 5 5 4 3 2 3 5 6 3 6 6 7 10 12 13 14 16 17 18 20 19 22 17 20 7
6 6 4 3 4 6 6 2 4 5 4 9 7 8 7 6 3 4 7 3 3 4 5 4 3 5 3 9 13 8 8 10 12 13 15 16 16 18 21 22 21 17 6 3
3 3 4 3 2 8 7 7 2 5 7 8 8 7 7 5 5 4 1 2 4 4 5 6 5 5 13 14 7 9 11 12 11 11 15 16 16 16 13 10 6 9 3 8
7 6 4 3 2 7 7 5 7 6 3 7 6 6 6 6 5 4 4 2 8 12 13 13 12 13 11 8 17 16 14 11 10 15 16 13 12 12 13 11 10 5 7 5
2 7 5 9 7 5 6 6 2 6 5 6 7 6 7 6 4 6 4 8 12 10 11 11 11 10 12 20 22 18 14 12 16 13 9 10 12 12 13 9 1 5 4 3
4 5 3 3 5 7 7 2 5 5 6 6 6 7 6 4 5 7 6 7 8 9 9 10 12 15 18 22 16 12 16 20 20 14 9 10 9 11 11 8 3 4 3 4
5 4 4 4 4 2 2 3 7 7 7 7 8 8 6 10 7 7 5 6 4 5 8 13 16 17 20 20 22 24 22 23 22 14 9 7 6 8 7 4 4 6 6 5
4 7 4 7 7 6 5 7 8 8 8 8 8 10 11 13 7 9 6 3 3 7 14 18 18 20 19 23 25 25 16 17 12 13 12 7 6 6 1 2 4 6 7 8
Wind_Direction
1 60 142 213 184 202 224 241 161 147 179 139 98 67 69 76 100 94 89 88 83 66 61 67 77 88 111 129 135 152 170 160 130 126 121 112 106 107 102 89 63 20 345 330
27 127 234 326 30 41 89 78 0 21 16 87 99 49 47 85 95 109 111 103 101 94 73 69 76 85 89 94 87 91 102 115 101 83 87 103 97 80 81 62 5 341 359 31
143 207 332 90 39 60 43 104 69 139 359 48 105 44 87 64 80 82 73 97 96 102 99 89 85 90 89 91 99 98 96 89 80 70 62 69 54 316 323 339 339 355 20 33
90 355 86 86 69 85 57 158 148 132 88 158 128 138 13 119 96 98 105 103 107 106 104 108 103 101 106 114 113 107 99 88 66 15 341 311 307 335 343 359 347 38 28 11
239 65 67 71 29 79 206 351 48 59 100 87 40 100 170 189 119 125 122 119 125 132 120 125 130 125 114 100 88 79 73 43 2 328 311 267 246 270 224 301 86 24 7 358
91 130 72 281 306 253 292 11 37 50 61 41 294 123 194 211 154 119 115 136 142 117 113 123 124 118 116 117 127 132 353 332 315 290 277 268 262 229 153 78 24 359 351 356
42 4 324 35 34 15 41 55 12 14 14 212 323 54 260 158 150 135 136 146 150 139 138 144 141 136 152 183 319 287 270 319 335 323 279 279 120 106 78 17 349 337 337 334
130 350 359 327 85 243 357 116 145 166 171 268 9 88 313 121 122 150 149 155 151 147 155 150 133 54 60 56 51 45 40 38 45 81 77 67 54 54 352 344 331 302 253 133
135 149 291 23 322 121 312 52 164 105 359 71 262 42 4 157 129 113 184 192 138 91 76 113 95 76 72 66 60 56 49 49 49 44 0 331 313 295 307 306 304 227 191 190
178 107 314 345 26 6 104 171 44 8 94 62 335 185 197 192 120 93 58 89 92 90 84 80 77 82 75 57 42 37 29 19 6 354 341 334 314 305 298 302 274 213 225 272
66 92 286 41 29 352 5 29 60 105 107 150 145 271 248 159 133 116 113 108 108 104 89 82 88 87 73 59 53 51 41 32 7 353 337 324 314 306 295 256 225 258 296 303
31 116 93 160 270 312 147 116 102 108 242 73 136 263 307 143 138 138 139 123 108 94 93 90 88 81 70 61 57 51 38 33 25 14 355 331 320 312 287 246 261 273 270 285
19 18 63 354 350 348 93 105 106 100 82 198 123 258 184 62 90 93 113 104 99 108 92 86 74 54 60 64 45 40 32 29 16 6 1 355 346 330 301 272 267 216 302 352
84 79 145 177 195 189 243 48 134 119 118 187 208 214 170 143 117 108 103 111 106 95 72 45 37 40 80 52 38 43 32 19 11 2 357 354 348 338 312 225 319 326 296 308
80 113 33 67 29 359 255 108 86 194 200 165 242 209 147 144 138 129 123 109 83 62 41 25 10 87 89 47 59 37 22 15 9 359 356 358 356 351 319 293 281 266 284 289
9 143 355 29 11 18 322 309 269 235 212 234 107 70 99 95 97 102 120 110 104 90 21 306 333 107 53 89 58 26 15 8 1 354 352 346 345 327 310 291 266 287 294 297
58 119 71 256 5 352 357 225 226 130 12 226 189 170 144 125 135 153 151 147 151 172 236 269 175 113 126 100 40 10 355 347 345 342 343 342 341 324 319 311 296 296 292 322
122 92 75 202 26 33 248 305 175 109 76 108 105 130 142 160 167 156 179 171 195 227 255 299 178 138 151 110 341 329 309 329 339 335 335 335 333 328 322 314 319 306 309 288
88 114 88 129 192 297 312 172 162 164 210 182 141 151 145 153 130 225 205 199 211 230 287 230 289 197 200 256 306 295 317 329 327 319 321 326 327 324 319 304 311 297 308 303
57 76 108 145 137 219 234 217 130 88 285 186 162 170 165 138 167 238 210 227 232 284 279 259 250 216 262 332 327 304 315 321 313 312 320 321 317 314 313 311 312 312 303 281
46 10 150 146 215 287 240 242 112 104 238 168 172 169 168 186 200 207 215 255 245 304 1 22 34 5 333 331 340 323 315 305 305 316 322 315 316 322 335 354 353 326 299 157
167 149 193 104 93 281 190 107 166 203 146 158 167 178 179 195 204 222 180 225 51 50 57 28 11 359 359 2 338 318 301 291 304 321 324 325 334 346 332 324 312 282 152 129
222 189 182 183 211 238 219 197 181 151 148 174 161 169 180 190 219 163 87 82 81 54 36 21 6 357 347 337 332 307 308 300 306 306 315 326 330 345 347 344 17 146 126 73
248 151 197 96 241 219 221 91 150 164 162 159 171 175 174 168 144 101 100 89 63 33 23 2 351 343 334 338 334 329 324 323 299 285 299 320 330 346 351 343 118 95 68 30
206 149 192 255 282 32 336 205 160 153 151 167 180 189 169 112 115 119 106 91 44 30 5 354 344 335 329 333 331 328 323 325 304 262 284 309 330 352 12 88 77 24 6 352
188 201 179 242 214 209 211 184 167 162 186 196 155 97 105 123 124 128 124 79 41 6 354 344 335 326 324 327 330 332 316 326 331 291 294 294 323 337 136 86 29 11 349 342
Height
782 800 811 796 793 795 799 803 810 801 792 797 813 820 817 813 812 819 820 823 827 828 827 824 826 827 828 831 836 838 840 839 841 844 844 846 847 850 851 850 850 850 848 846
801 809 792 789 791 796 798 805 812 800 793 802 821 831 826 817 822 818 821 825 829 832 832 832 833 835 838 840 842 843 843 844 846 846 850 850 850 850 849 849 848 847 845 844
808 797 785 794 803 805 811 813 811 810 804 810 819 839 835 829 826 825 828 829 830 832 837 838 839 842 844 845 847 847 848 847 847 849 850 850 849 849 848 847 846 845 845 845
797 791 794 802 807 805 817 803 806 809 820 838 814 867 845 841 837 833 833 834 834 836 838 841 843 844 846 848 849 849 849 849 849 848 847 846 846 846 847 846 846 845 844 845
808 803 807 809 804 799 809 797 803 805 820 823 825 852 850 839 843 842 841 838 838 836 836 841 843 842 844 846 846 845 844 845 845 845 845 844 844 845 846 845 845 845 845 843
799 792 798 800 796 795 795 802 815 818 829 858 828 841 853 847 839 840 841 840 838 838 839 841 842 843 845 845 845 845 845 845 845 844 844 843 844 844 844 845 845 845 844 841
808 808 799 796 805 800 806 823 859 860 873 867 827 844 846 832 831 832 839 841 839 840 841 842 843 842 843 844 844 845 846 847 846 845 844 844 844 844 844 846 846 843 844 838
829 842 812 802 807 812 811 823 859 861 879 857 835 854 850 833 831 833 834 837 837 838 840 844 846 847 849 849 847 847 848 848 847 847 847 848 848 848 847 845 841 842 838 836
829 828 805 803 801 806 814 835 821 853 868 869 858 846 838 833 834 831 834 834 842 845 848 849 850 848 849 849 851 852 852 852 851 850 850 848 845 843 839 839 834 835 831 831
810 830 810 804 801 803 810 811 842 858 866 877 864 851 853 843 839 839 843 844 846 848 851 850 851 852 852 854 854 853 852 851 851 849 847 845 843 840 836 833 831 830 828 827
809 822 827 814 823 824 825 828 834 845 868 880 890 867 839 838 840 845 847 846 847 851 853 854 855 855 855 855 854 854 853 852 851 847 846 844 841 838 834 832 830 830 829 830
814 834 857 827 813 809 813 824 838 872 856 885 892 870 835 838 839 841 845 847 850 853 855 855 856 855 854 854 853 853 853 850 848 848 845 842 840 836 833 830 827 827 826 824
816 840 864 847 834 822 822 821 832 850 869 864 891 874 837 840 841 845 849 853 855 855 856 855 855 853 852 853 852 852 850 848 846 844 842 840 837 834 831 827 824 824 825 822
818 834 843 858 840 836 830 826 833 843 875 864 868 846 846 848 848 850 853 854 854 855 854 853 852 853 853 852 851 850 848 847 845 842 840 837 834 829 826 825 825 823 822 818
824 840 839 835 835 831 829 831 834 837 842 854 845 845 845 847 848 849 850 850 852 854 854 852 853 852 852 850 850 849 847 845 844 842 839 835 831 829 826 823 819 817 815 811
834 852 850 838 841 844 837 836 834 834 829 832 841 848 844 846 849 853 853 853 854 854 853 853 852 851 850 849 848 846 844 843 842 839 836 833 830 826 823 819 816 815 813 809
849 865 868 860 863 858 860 831 826 823 830 825 843 842 846 850 852 854 854 853 852 851 851 850 849 848 847 846 845 843 842 840 838 836 833 829 825 822 819 816 814 812 811 809
857 861 882 879 879 876 831 822 820 834 834 835 839 844 846 848 851 852 851 850 850 849 848 846 846 845 844 843 842 841 839 836 833 830 827 825 822 819 816 813 811 810 808 806
842 870 882 883 886 855 831 821 824 826 840 836 839 843 844 848 851 851 848 846 845 845 843 842 842 842 841 841 839 836 834 832 830 826 823 821 819 815 812 810 808 805 804 802
850 862 869 883 885 879 837 818 815 818 845 833 836 841 842 846 865 851 843 843 842 842 841 840 840 840 840 838 835 833 831 829 826 823 820 818 815 812 809 805 803 802 801 800
874 879 879 888 898 862 828 819 817 846 839 827 831 836 840 844 844 838 839 839 840 839 839 840 840 840 838 835 833 831 828 825 823 820 817 814 811 809 805 802 801 800 799 799
851 868 878 888 892 860 816 816 830 822 819 823 828 830 833 834 834 835 836 837 838 839 839 839 839 838 836 834 831 828 825 822 820 817 814 811 809 806 804 801 799 797 797 798
833 832 844 840 835 814 809 806 806 810 816 821 825 826 828 830 832 832 835 836 837 838 838 838 837 836 834 832 829 824 821 819 816 813 810 808 806 804 801 799 798 797 797 796
815 814 831 825 807 809 805 807 808 809 812 816 818 821 823 826 830 834 835 836 837 837 837 836 835 833 831 829 825 823 819 816 812 809 807 805 803 801 799 798 797 797 796 795
816 809 812 819 806 806 805 805 807 810 812 815 817 819 821 825 830 832 835 836 836 836 835 834 832 830 827 825 821 819 815 811 806 805 803 802 801 799 798 797 796 796 795 793
805 805 816 807 800 799 799 800 803 806 809 810 812 818 822 824 829 832 834 834 834 833 831 830 828 826 823 820 816 813 810 807 804 803 801 799 798 797 796 796 795 795 793 791